FLOCK 1C-8

Last updated on Wed Feb 14 2018 16:18:48 GMT+0000 (Greenwich Mean Time)

1 40040U 14033AG 18045.32061433 .00000565 00000-0 62502-4 0 9994 2 40040 97.9279 326.1909 0012195 199.6528 160.4224 14.91297299198719
UTC large
Height (km)
Speed (km/s)
/
Latitude / Longitude
Inclination (degrees)
Orbital Period (minutes)
Azimuth
Elevation
Range (km)
Doppler Factor

Next 0 passes for location: London (51.5072 / 0.1276)

Sorry there are no passes over London.